Location: Niedergestelen
(46.3129°N, 7.7822°E)
Time: 05:25:11
(UTC+00:00)

Lacrosse 4 Rocket - Pass Details

Date: 01 December 2020
Orbit: 538 x 620 km, 68.0° (Epoch: 18 January)

Event Time Altitude Azimuth Distance (km) Brightness Sun altitude
Rises 17:43:50 0° 179° (S) 2,680 5.0 -20.0°
Reaches altitude 10° 17:46:16 10° 166° (SSE) 1,799 3.9 -20.4°
Enters shadow 17:47:13 15° 156° (SSE) 1,501 3.4 -20.6°
